| time (UTC) | temp F | wind direction | speed knots | gust knots | rain 1hr in | rain 24hr in | rain mn in | humidity % | barometer mb |
| 20260506134518 | 42 | 248 | 0.0 | 0.0 | 0.05 | 0.40 | 0.24 | 99 | 1009.7 |
| 20260506133031 | 42 | 248 | 0.0 | 0.9 | 0.06 | 0.39 | 0.23 | 100 | 1009.7 |
| 20260506131520 | 42 | 240 | 0.0 | 0.9 | 0.05 | 0.37 | 0.21 | 99 | 1009.8 |
| 20260506130015 | 42 | 239 | 0.0 | 0.0 | 0.05 | 0.36 | 0.20 | 99 | 1009.8 |
| 20260506124513 | 42 | 276 | 0.0 | 0.9 | 0.05 | 0.37 | 0.18 | 99 | 1009.9 |
| 20260506123013 | 42 | 276 | 0.0 | 0.0 | 0.05 | 0.36 | 0.17 | 99 | 1009.5 |
| 20260506121509 | 43 | 276 | 0.0 | 0.9 | 0.05 | 0.35 | 0.16 | 99 | 1009.4 |
| 20260506120007 | 43 | 276 | 0.0 | 0.0 | 0.05 | 0.34 | 0.15 | 99 | 1009.6 |
| 20260506114505 | 43 | 276 | 0.0 | 1.7 | 0.04 | 0.32 | 0.13 | 99 | 1009.8 |
| 20260506113001 | 44 | 249 | 0.0 | 2.6 | 0.04 | 0.31 | 0.12 | 99 | 1010.1 |
| 20260506111607 | 44 | 267 | 0.0 | 0.9 | 0.03 | 0.30 | 0.11 | 99 | 1009.3 |
| 20260506110058 | 44 | 267 | 0.0 | 0.0 | 0.02 | 0.28 | 0.10 | 99 | 1009.2 |
| 20260506104600 | 44 | 267 | 0.0 | 2.6 | 0.01 | 0.28 | 0.09 | 99 | 1009.5 |
| 20260506103101 | 44 | 306 | 0.0 | 0.9 | 0.00 | 0.27 | 0.08 | 98 | 1009.3 |
| 20260506101556 | 44 | 286 | 0.0 | 1.7 | 0.00 | 0.27 | 0.08 | 99 | 1009.6 |
| 20260506100059 | 44 | 151 | 0.0 | 0.9 | 0.00 | 0.27 | 0.08 | 99 | 1009.4 |
| 20260506094553 | 44 | 184 | 0.0 | 3.5 | 0.00 | 0.27 | 0.08 | 99 | 1009.1 |
| 20260506093051 | 44 | 215 | 0.0 | 2.6 | 0.00 | 0.27 | 0.08 | 99 | 1008.9 |
| 20260506091552 | 45 | 109 | 0.0 | 1.7 | 0.00 | 0.27 | 0.08 | 99 | 1008.6 |
| 20260506090050 | 45 | 190 | 0.0 | 1.7 | 0.00 | 0.27 | 0.08 | 99 | 1009.2 |
| 20260506084553 | 45 | 180 | 0.0 | 3.5 | 0.00 | 0.27 | 0.08 | 99 | 1009.1 |
| 20260506083051 | 45 | 186 | 0.0 | 2.6 | 0.00 | 0.27 | 0.08 | 99 | 1008.9 |
| 20260506081549 | 45 | 186 | 0.0 | 1.7 | 0.00 | 0.27 | 0.08 | 99 | 1008.8 |
| 20260506073047 | 45 | 193 | 0.0 | 2.6 | 0.02 | 0.27 | 0.08 | 98 | 1008.6 |
| 20260506071542 | 45 | 202 | 0.0 | 3.5 | 0.02 | 0.27 | 0.08 | 97 | 1008.6 |
| 20260506061536 | 45 | 163 | 0.0 | 3.5 | 0.00 | 0.25 | 0.06 | 97 | 1008.3 |
| 20260506044522 | 47 | 223 | 0.0 | 2.6 | 0.06 | 0.23 | 0.04 | 98 | 1008.0 |
| 20260506043020 | 48 | 196 | 0.0 | 4.3 | 0.06 | 0.22 | 0.03 | 97 | 1007.6 |
| 20260506041517 | 48 | 301 | 1.7 | 6.1 | 0.06 | 0.21 | 0.02 | 96 | 1007.4 |
| 20260506040032 | 49 | 257 | 1.7 | 7.0 | 0.05 | 0.19 | 0.00 | 96 | 1007.7 |
| 20260506034513 | 49 | 332 | 0.9 | 3.5 | 0.04 | 0.17 | 0.17 | 96 | 1007.0 |
| 20260506033011 | 50 | 286 | 1.7 | 11.3 | 0.04 | 0.16 | 0.16 | 94 | 1007.1 |
| 20260506031510 | 50 | 256 | 0.0 | 8.7 | 0.05 | 0.15 | 0.15 | 93 | 1006.5 |
| 20260506030012 | 51 | 242 | 1.7 | 12.2 | 0.04 | 0.14 | 0.14 | 92 | 1006.5 |
| 20260506024508 | 51 | 304 | 2.6 | 11.3 | 0.03 | 0.13 | 0.13 | 92 | 1006.6 |
| 20260506023004 | 53 | 290 | 2.6 | 7.8 | 0.02 | 0.12 | 0.12 | 89 | 1006.3 |
| 20260506021503 | 55 | 273 | 2.6 | 13.9 | 0.00 | 0.10 | 0.10 | 81 | 1006.1 |
| 20260506020002 | 58 | 198 | 2.6 | 9.6 | 0.00 | 0.10 | 0.10 | 73 | 1005.7 |
| 20260506014601 | 59 | 251 | 0.9 | 10.4 | 0.00 | 0.10 | 0.10 | 72 | 1005.5 |
| 20260506013104 | 59 | 296 | 0.9 | 9.6 | 0.00 | 0.10 | 0.10 | 70 | 1005.0 |
| 20260506011555 | 60 | 281 | 0.9 | 15.6 | 0.00 | 0.10 | 0.10 | 69 | 1004.7 |
| 20260506010110 | 60 | 253 | 0.9 | 10.4 | 0.00 | 0.10 | 0.10 | 69 | 1004.4 |
| 20260506004553 | 61 | 302 | 2.6 | 9.6 | 0.00 | 0.10 | 0.10 | 69 | 1004.0 |
| 20260506003050 | 61 | 300 | 0.9 | 11.3 | 0.00 | 0.10 | 0.10 | 71 | 1003.5 |
| 20260506001548 | 62 | 244 | 1.7 | 17.4 | 0.00 | 0.10 | 0.10 | 74 | 1003.7 |
| 20260506000046 | 61 | 296 | 1.7 | 8.7 | 0.00 | 0.10 | 0.10 | 81 | 1003.4 |
| 20260505234602 | 62 | 254 | 0.9 | 4.3 | 0.00 | 0.10 | 0.10 | 85 | 1003.0 |
| 20260505233042 | 62 | 281 | 0.9 | 6.1 | 0.00 | 0.10 | 0.10 | 83 | 1002.8 |
| 20260505231541 | 62 | 176 | 0.9 | 5.2 | 0.00 | 0.10 | 0.10 | 83 | 1002.6 |
| 20260505230040 | 62 | 309 | 0.9 | 6.1 | 0.00 | 0.10 | 0.10 | 82 | 1002.2 |
| 20260505224540 | 63 | 285 | 1.7 | 9.6 | 0.00 | 0.10 | 0.10 | 81 | 1001.9 |
| 20260505223040 | 63 | 185 | 1.7 | 6.1 | 0.00 | 0.10 | 0.10 | 80 | 1001.5 |
| 20260505221539 | 64 | 275 | 0.9 | 7.8 | 0.00 | 0.10 | 0.10 | 79 | 1001.2 |
| 20260505220041 | 64 | 148 | 0.9 | 8.7 | 0.00 | 0.10 | 0.10 | 77 | 1001.1 |
| 20260505214559 | 65 | 132 | 2.6 | 7.8 | 0.00 | 0.10 | 0.10 | 77 | 1000.9 |
| 20260505213037 | 65 | 219 | 3.5 | 14.8 | 0.00 | 0.10 | 0.10 | 76 | 1000.5 |
| 20260505211535 | 65 | 205 | 2.6 | 13.0 | 0.00 | 0.10 | 0.10 | 76 | 1000.4 |
| 20260505210034 | 65 | 174 | 1.7 | 12.2 | 0.00 | 0.10 | 0.10 | 75 | 999.9 |
| 20260505204537 | 65 | 225 | 2.6 | 17.4 | 0.00 | 0.10 | 0.10 | 76 | 999.8 |
| 20260505203038 | 64 | 235 | 1.7 | 13.9 | 0.01 | 0.10 | 0.10 | 78 | 999.9 |
| 20260505201536 | 63 | 258 | 2.6 | 11.3 | 0.01 | 0.10 | 0.10 | 82 | 1000.1 |
| 20260505200031 | 62 | 11 | 1.7 | 18.2 | 0.01 | 0.10 | 0.10 | 84 | 1000.0 |
| 20260505194538 | 62 | 233 | 3.5 | 20.0 | 0.01 | 0.11 | 0.10 | 86 | 1000.3 |
| 20260505193031 | 64 | 336 | 1.7 | 10.4 | 0.00 | 0.10 | 0.09 | 83 | 1000.1 |
| 20260505191529 | 64 | 205 | 2.6 | 10.4 | 0.00 | 0.10 | 0.09 | 81 | 1000.0 |
| 20260505190029 | 65 | 196 | 1.7 | 7.0 | 0.00 | 0.10 | 0.09 | 78 | 1000.0 |
| 20260505184528 | 65 | 215 | 2.6 | 7.8 | 0.00 | 0.10 | 0.09 | 77 | 999.9 |
| 20260505183027 | 66 | 178 | 0.9 | 11.3 | 0.00 | 0.10 | 0.09 | 76 | 1000.0 |
| 20260505181527 | 67 | 248 | 1.7 | 9.6 | 0.01 | 0.10 | 0.09 | 75 | 999.8 |
| 20260505180050 | 66 | 192 | 1.7 | 9.6 | 0.03 | 0.10 | 0.09 | 77 | 999.7 |
| 20260505174546 | 65 | 191 | 0.9 | 7.8 | 0.03 | 0.10 | 0.09 | 82 | 999.6 |
| 20260505173031 | 63 | 256 | 1.7 | 12.2 | 0.03 | 0.10 | 0.09 | 81 | 999.5 |
| 20260505171525 | 68 | 223 | 0.9 | 16.5 | 0.01 | 0.08 | 0.07 | 72 | 999.4 |
| 20260505170023 | 70 | 188 | 1.7 | 11.3 | 0.00 | 0.07 | 0.06 | 62 | 998.7 |
| 20260505164522 | 71 | 193 | 3.5 | 11.3 | 0.00 | 0.07 | 0.06 | 61 | 998.8 |
| 20260505163020 | 71 | 146 | 3.5 | 9.6 | 0.00 | 0.07 | 0.06 | 62 | 999.3 |
| 20260505161517 | 71 | 342 | 0.9 | 8.7 | 0.00 | 0.07 | 0.06 | 63 | 999.5 |
| 20260505153008 | 70 | 300 | 1.7 | 7.8 | 0.00 | 0.08 | 0.06 | 65 | 1000.0 |
| 20260505151504 | 68 | 197 | 1.7 | 8.7 | 0.00 | 0.08 | 0.06 | 67 | 1000.3 |